Regional Weather Roundup
Issued by NWS Mt. Holly, NJ

Current Version | Previous Version | Text Only | Print | Product List | Glossary Off
Versions: 1 2 3 4 5 6 7 8 9 10 11 12 13 14 15 16 17 18 19 20 21 22 23 24 25 26 27 28 29 30 31 32 33 34 35 36 37 38 39 40 41 42 43 44 45 46 47 48 49 50

000
ASUS41 KPHI 212010
RWRPHI

REGIONAL WEATHER ROUNDUP
NATIONAL WEATHER SERVICE MOUNT HOLLY NJ
400 PM EDT THU AUG 21 2014

NOTE:  "FAIR" INDICATES FEW OR NO CLOUDS BELOW 12,000 FEET WITH NO
SIGNIFICANT WEATHER AND/OR OBSTRUCTIONS TO VISIBILITY.

 * = STATION DOES NOT REPORT PRECIPITATION (E.G. RAIN, SNOW, ETC.)
        OR FOG.

NJZ015>026-212100-
SOUTHERN NEW JERSEY

CITY           SKY/WX    TMP DP  RH WIND       PRES   REMARKS
POMONA         PTSUNNY   78  64  61 S9        30.03S
RIO GRANDE*    PTSUNNY   79  64  61 SE13      30.04S
MILLVILLE      PTSUNNY   81  68  64 SE9       30.01F
WRIGHTSTOWN    MOSUNNY   82  65  57 SE8       29.99S
MOUNT HOLLY    PTSUNNY   82  66  58 S3        30.00F
TRENTON        MOSUNNY   83  61  47 S9        30.00F

$$
NJZ001>014-212100-
NORTHERN NEW JERSEY

CITY           SKY/WX    TMP DP  RH WIND       PRES   REMARKS
SUSSEX         PTSUNNY   81  63  54 VRB7      30.00F
ANDOVER*         N/A     81  62  52 SW9       30.01F
NEWARK         MOSUNNY   78  62  57 SE13      30.02F
TETERBORO      SUNNY     85  61  44 S13G22    30.00F
CALDWELL       MOSUNNY   78  63  59 SE14      30.02S
SOMERVILLE     CLOUDY    83  60  45 S7        29.99S
ALLAIRE*       MOSUNNY   75  57  53 SE10      30.03F
TOMS RIVER*    PTSUNNY   79  61  53 S10       30.03F

$$
PAZ043-044-047-054-055-060>062-066>071-212100-
EASTERN PENNSYLVANIA

CITY           SKY/WX    TMP DP  RH WIND       PRES   REMARKS
PHILADELPHIA   CLOUDY    82  68  62 S6        30.00F
NORTH PHILA    LGT RAIN  81  67  62 VRB3      30.02S
BLUE BELL      PTSUNNY   81  70  69 S6        30.00S
DOYLESTOWN     PTSUNNY   80  67  64 VRB6      30.00F
QUAKERTOWN*    PTSUNNY   81  68  65 MISG      30.02S
POTTSTOWN      CLOUDY    80  68  66 SW6       30.02S
LANCASTER      CLOUDY    81  69  67 E3        29.99F
COATESVILLE    PTSUNNY   79  75  89 SE3       30.03S
READING        CLOUDY    83  69  62 S5        29.99S
ALLENTOWN      PTSUNNY   81  67  62 S9        30.00S
MOUNT POCONO   PTSUNNY   75  65  70 S13       30.06R
HAZLETON       PTSUNNY   77  68  73 S6        30.07S
WILKES BARRE   MOSUNNY   86  63  45 SW15G21   29.98S

$$
DEZALL-MDZ008-012-015-019-020-212100-
DELAWARE AND EASTERN MARYLAND

CITY           SKY/WX    TMP DP  RH WIND       PRES   REMARKS
WILMINGTON     PTSUNNY   82  71  69 SE9       30.01F
DOVER          MOSUNNY   80  73  77 E14       30.00F
GEORGETOWN     HVY RAIN  77  72  84 SE13      30.02S
EASTON         MOSUNNY   90  70  51 NW5       30.03F HX  95
PATUXENT       PTSUNNY   81  73  76 SE8       29.99F
OCEAN CITY     MOSUNNY   79  72  79 SE9       30.02F
WALLOPS ISLAND CLOUDY    81  74  79 S13       30.02F
CAMBRIDGE      MOSUNNY   86  68  54 E3        29.99S
SALISBURY      CLOUDY    84  73  69 S10G16    30.00F HX  90

$$
PAZ001-021-NYZ056-072-MDZ011-DCZ001-212100-
OTHER NEARBY LOCATIONS

CITY           SKY/WX    TMP DP  RH WIND       PRES   REMARKS
HARRISBURG     CLOUDY    80  74  81 CALM      29.97F
STATE COLLEGE  TSTM      66  64  94 SW9       30.06R
WILLIAMSPORT   MOSUNNY   82  67  60 S8        29.97F
BINGHAMTON     PTSUNNY   71  64  78 E6        29.99S THUNDER
NEW YORK CITY  SUNNY     78  59  51 S9        30.05F
BALTIMORE      PTSUNNY   86  68  54 S3        29.98F
WASHINGTON DC  CLOUDY    87  68  52 VRB5      29.99F HX  90

$$



USA.gov is the U.S. government's official web portal to all federal, state and local government web resources and services.